TimeEDT,TemperatureF,Dew PointF,Humidity,Sea Level PressureIn,VisibilityMPH,Wind Direction,Wind SpeedMPH,Gust SpeedMPH,PrecipitationIn,Events,Conditions,WindDirDegrees,DateUTC
12:54 AM,54.0,50.0,86,30.12,10.0,West,4.6,-,N/A,,Overcast,260,2012-10-10 04:54:00
1:54 AM,52.0,50.0,93,30.11,10.0,West,3.5,-,N/A,,Mostly Cloudy,270,2012-10-10 05:54:00
2:07 AM,50.0,48.9,96,30.11,10.0,Calm,Calm,-,N/A,,Scattered Clouds,0,2012-10-10 06:07:00
2:54 AM,48.0,46.9,96,30.10,7.0,SSW,3.5,-,N/A,,Clear,200,2012-10-10 06:54:00
3:54 AM,46.0,46.0,100,30.09,6.0,SW,3.5,-,N/A,,Clear,220,2012-10-10 07:54:00
4:54 AM,46.0,46.0,100,30.09,6.0,Calm,Calm,-,N/A,,Clear,0,2012-10-10 08:54:00
5:54 AM,44.1,44.1,100,30.09,6.0,SSW,4.6,-,N/A,,Clear,210,2012-10-10 09:54:00
6:54 AM,44.1,44.1,100,30.11,6.0,SW,4.6,-,N/A,,Clear,230,2012-10-10 10:54:00
7:54 AM,46.9,45.0,93,30.12,9.0,West,6.9,-,N/A,,Clear,270,2012-10-10 11:54:00
8:54 AM,50.0,46.9,89,30.12,10.0,West,8.1,-,N/A,,Clear,260,2012-10-10 12:54:00
9:54 AM,54.0,48.9,83,30.12,10.0,Variable,3.5,-,N/A,,Clear,0,2012-10-10 13:54:00
10:54 AM,57.9,48.9,72,30.10,10.0,WSW,8.1,-,N/A,,Clear,250,2012-10-10 14:54:00
11:54 AM,61.0,51.1,70,30.08,10.0,WSW,8.1,-,N/A,,Clear,240,2012-10-10 15:54:00
12:54 PM,66.0,51.1,59,30.07,10.0,SW,6.9,-,N/A,,Clear,220,2012-10-10 16:54:00
1:54 PM,68.0,51.1,55,30.05,10.0,WNW,9.2,-,N/A,,Clear,290,2012-10-10 17:54:00
2:54 PM,70.0,52.0,53,30.05,10.0,West,8.1,-,N/A,,Clear,270,2012-10-10 18:54:00
3:54 PM,71.1,53.1,53,30.04,10.0,West,8.1,-,N/A,,Clear,260,2012-10-10 19:54:00
4:54 PM,72.0,54.0,53,30.03,10.0,WSW,9.2,-,N/A,,Mostly Cloudy,250,2012-10-10 20:54:00
5:54 PM,70.0,54.0,57,30.04,10.0,West,4.6,-,N/A,,Scattered Clouds,280,2012-10-10 21:54:00
6:54 PM,66.9,52.0,59,30.06,10.0,NW,8.1,-,N/A,,Mostly Cloudy,320,2012-10-10 22:54:00
7:54 PM,62.1,48.9,62,30.08,10.0,NNW,5.8,-,N/A,,Partly Cloudy,330,2012-10-10 23:54:00
8:54 PM,57.9,51.1,78,30.10,10.0,Calm,Calm,-,N/A,,Scattered Clouds,0,2012-10-11 00:54:00
9:54 PM,55.9,48.9,77,30.11,10.0,NW,5.8,-,N/A,,Clear,320,2012-10-11 01:54:00
10:54 PM,54.0,50.0,86,30.13,10.0,Calm,Calm,-,N/A,,Clear,0,2012-10-11 02:54:00
11:54 PM,51.1,48.0,89,30.14,10.0,Calm,Calm,-,N/A,,Clear,0,2012-10-11 03:54:00